Terug naar catalogus

STARLINK-30815

ActiefCommunicatieVLEO
NORAD 58164·PAYLOAD·🇺🇸 United States

Gelanceerd Oct 29, 2023 vanaf Vandenberg Space Force Base

Loading…

Volgende Passages (komende 24 uur)

TLE

VersSource: CelesTrak SupGP

Epoch: Sep 15, 2026, 02:01 UTC

1 58164C 23166Q   26258.08451389 -.00024289  00000+0 -78111-3 0  2588
2 58164  53.1584  58.4928 0001076  84.5813  11.8767 15.31712228    14

Volg STARLINK-30815 in realtime met AllMySat

Download on the App Store